Showing default

LEMUR-2 POLO-11, 68493

Orbit data source: Space-Track

LEMUR-2 POLO-11, 68493 is a payload satellite owned by Spire (LU) in SSO that was launched on Mon, 30 Mar 2026 UTC via an FALCON 9 launch vehicle from the Air Force Western Test Range (AFWTR). Payload-class satellites include a variety of spacecraft equipped with specific instruments for various scientific and technological missions. These include communications satellites like Starlink; space stations such as the ISS; scientific satellites like the Hubble; Earth observation satellites from companies like Planet Labs, Umbra, and HawkEye 360; GPS; miniature CubeSats for education and research; and military/defense satellites.

Loading next visibility...
Identifier
68493, 2026-067CF
Orbit
SSO
Country
Flag of LULU / LUXE
Related business
Manufacturer
Spire/Glasgow
Mission
Operational Commercial Com/MetRO
Bus & Motor
CUBESAT 3U, Unknown motor
Mass
7.6 kg wet, 7.6 kg dry
Launch date (UTC)
2026-03-30 (4 months ago)
Launch vehicle
FALCON 9
Launch site
Air Force Western Test Range (AFWTR)
Object type
Payload
Rocket body
Debris
Shape & HBR
Box + 2 Pan, 0.2 m
Radar Cross Section
0.063 m², Medium (>0.1 m² and < 1m²)

Expand to show TLE details & history
Last TLE update: 20 hours ago

TLE from 20 hours ago
0 LEMUR-2 POLO-11
1 68493U 26067CF  26201.87480976  .00003868  00000-0  38679-3 0  9992
2 68493  97.7665 159.6393 0001801 282.5149  77.5869 14.92024730 16741
Epoch: 2026-07-20T20:59Z
TLE epoch observation values (Epoch: 2026-07-20T20:59:43.563Z)
Latitude
0.00005°
Longitude
-93.94481°
Altitude
594.395 km
Speed
7.563 km/s
True Right ascension
10h 38m 33s
True Declination
0° 00' 00"
Sunlit
Object was in daylight at epoch
Visualization orbit readout
Latitude
Unknown
Longitude
Unknown
Altitude
Unknown
Speed
Unknown
Apparent Right ascension
Unknown
Apparent Declination
Unknown
Sunlit
N/A
Visualization observer readout
Local Sidereal Time
06:07:31
Azimuth
Unknown
Elevation
Unknown
Doppler factor
Unknown
Orbital elements
Apogee altitude
589.897 km
Perigee altitude
587.387 km
Semi-major axis
6,966.779 km
Eccentricity
0.00018
Inclination
97.7665°
RAAN
159.6393°
Arg. of periapsis
282.5149°
True anomaly
77.60706°
Mean anomaly
77.5869°
Eccentric anomaly
77.59698°
Mean motion
3.73246 °/min
Orbital period
96.45 mins
BSTAR
0.00038679
Loading maneuver chart data...
Computing Atmospheric mass density...
Loading historical data...
Loading historical data...
Loading historical data...
Loading historical data...
Loading historical data...
Loading historical data...
Loading historical data...

Documentation

Showing up to 5 results
|